www.pogodaiklimat.ru

Погода и климат >> Архив погоды >> Россия >> Якутия >> Усть-Мая


АРХИВ ПОГОДЫ в Усть-Мае

Время (UTC), дата Ветер
(напр.,м/с)
 
Видим.   Явления Облачность Т
(С)
Тd
(С)
f
(%)
Тe
(С)
Тes
(С)
Комфортность P
(гПа)
Po
(гПа)
Тmin
(С)
Tmax
(С)
R
(мм)
R24
(мм)
S
(см)
03 14.07 С 2 50 км слаб. ливневой дождь, в посл. час гроза 10/5 600 м
[Cb cap Ac trans Ci fib]
+17.6 +16.1 91 +18 +21 1006.1 986.5
06 14.07 ЮВ 2 50 км {гроза, ливн. осадки} 9/4 600 м
[Cb cap Ac trans]
+20.4 +16.2 77 +24 +27 комфорт 1006.1 986.6
09 14.07 С 1 50 км 8/4 1000 м
[Cb cap Ac trans]
+22.4 +17.8 75 +27 +28 душно 1004.8 985.5 +22.4 5
12 14.07 С 1 50 км 9/5 1000 м
[Cb cap Ac trans]
+19.6 +17.9 90 +23 +23 комфорт 1005.2 985.7
15 14.07 Ю 1 20 км гроза, ливневой дождь 10/8 720 м
[Cb cap Ac trans]
+19.1 +16.7 86 +22 +22 комфорт 1006.2 986.6
18 14.07 СВ 1 50 км {гроза, ливн. осадки} 5/4 1000 м
[Sc Ac trans]
+15.8 +15.3 97 +16 +16 1005.5 985.8
21 14.07 СВ 1 50 км 5/4 1000 м
[Cb cap Ac trans]
+18.2 +16.5 90 +20 +21 1006.2 986.6 +14.9 0.5
00 15.07 штиль 0 50 км 4/3 1000 м
[Cb cap Ac trans]
+23.0 +17.4 71 +28 +36 душно 1006.1 986.9
03 15.07 Ю 2 50 км 6/5 1000 м
[Cb cap Ac cuf]
+26.0 +16.4 55 +29 +35 душно 1005.5 986.4
06 15.07 ЮВ 1 50 км 8/4 1000 м
[Cb cap Ci fib]
+27.5 +16.6 51 +31 +37 душно 1004.3 985.3
09 15.07 штиль 0 50 км 8/3 1000 м
[Cb cap Cs]
+27.5 +17.2 53 +31 +33 душно 1003.7 984.7 +28.2
12 15.07 ЮЗ 1 50 км 8/0
[Ac trans Ci fib]
+21.6 +16.2 71 +25 +25 комфорт 1004.9 985.6
15 15.07 штиль 0 50 км 8/0
[Ac trans Ci fib]
+17.5 +15.5 88 +17 +17 1005.2 985.6
18 15.07 З 1 50 км 8/0
[Ac trans Ci fib]
+16.0 +14.4 90 +17 +17 1005.5 985.7
21 15.07 Ю 1 20 км дым 6/0
[Ac cast Ci fib]
+18.3 +16.5 89 +20 +21 1005.8 986.2 +15.2
00 16.07 З 2 50 км 10/3 1000 м
[Cu hum Ci fib]
+24.5 +17.4 65 +29 +34 душно 1005.5 986.3
03 16.07 СЗ 3 50 км 6/4 1000 м
[Cb cap Ci fib]
+26.0 +15.4 52 +29 +35 душно 1004.6 985.5
06 16.07 СЗ 3 50 км 8/4 1000 м
[Cb cap Ci fib]
+27.6 +14.9 46 +30 +34 жарко 1003.3 984.4
09 16.07 СЗ 2 50 км 10/4 1000 м
[Cb cap Cs]
+27.0 +14.7 47 +30 +31 душно 1002.8 983.8 +27.9
12 16.07 СЗ 1 50 км 5/1 1000 м
[Cb cap Ac trans Ci fib]
+22.2 +13.8 59 +25 +25 комфорт 1003.8 984.5
15 16.07 З 1 50 км 6/3 1000 м
[Cb cap Ac trans Ci fib]
+18.5 +14.3 77 +20 +20 1004.2 984.6
18 16.07 СЗ 1 50 км 4/0
[Ac trans Ci fib]
+14.0 +12.6 91 +14 +14 1004.8 984.9
21 16.07 штиль 0 50 км 3/0
[Ac trans Ci fib]
+16.9 +12.7 76 +17 +19 1004.9 985.2 +13.7
00 17.07 З 2 50 км 4/1 1000 м
[Cu med, cong Ci fib]
+21.7 +10.8 50 +24 +31 комфорт 1004.7 985.3
03 17.07 ЮЗ 3 20 км дым 3/0
[Ci fib]
+24.6 +8.9 37 +25 +36 комфорт 1003.7 984.5
06 17.07 ЮЗ 4 10 км дым ясно +25.4 +4.3 26 +25 +31 комфорт 1002.8 983.6
09 17.07 З 1 20 км дым 8/0
[Ci fib]
+25.7 +6.8 30 +26 +28 жарко 1001.8 982.7 +25.7
12 17.07 ЮЗ 1 20 км дым 10/0
[Ac trans Ci fib]
+18.5 +11.7 65 +20 +20 1002.3 982.8
15 17.07 Ю 2 50 км 5/0
[Ac trans Ci fib]
+15.7 +13.2 85 +16 +16 1001.9 982.2
18 17.07 Ю 3 20 км дым 9/5 1000 м
[Cb cap Ac trans]
+14.8 +10.8 77 +14 +14 1000.5 980.8
21 17.07 Ю 3 20 км дым 10/5 1000 м
[Cb cap Ac trans Ci fib]
+14.8 +10.5 75 +14 +14 999.8 980.1 +14.2
00 18.07 Ю 3 10 км в посл. час ливневой дождь 10/5 1000 м
[Cb cap Ac trans]
+16.2 +11.8 75 +16 +17 998.8 979.2
03 18.07 СЗ 2 20 км дым 10/5 1000 м
[Cb cap Ac trans]
+20.8 +12.4 59 +24 +26 комфорт 999.1 979.8
06 18.07 штиль 0 20 км слаб. ливневой дождь 10/5 1000 м
[Cb cap Ac trans]
+17.8 +14.2 79 +18 +20 999.7 980.2
09 18.07 ЮЗ 2 20 км слаб. ливневой дождь 10/8 660 м
[Cb cap As op]
+15.4 +15.0 97 +15 +15 1000.9 981.2 +21.2 10
12 18.07 З 2 50 км в посл. час ливневой дождь 10/5 300 м
[Cb cap Ac trans Cs]
+14.7 +14.2 97 +14 +14 1001.9 982.2
15 18.07 СЗ 2 50 км 10/5 1000 м
[Cb cap Ac As]
+12.4 +11.3 93 +11 +11 1003.3 983.3
18 18.07 СЗ 1 50 км 10/3 1000 м
[Sc Ac As]
+10.2 +8.9 92 +10 +10 1004.1 983.9
21 18.07 З 2 50 км 10/3 1000 м
[Sc Ac As]
+9.5 +8.1 91 +8 +8 1005.4 985.2 +9.2 6
00 19.07 З 3 50 км 8/8 720 м
[Cb cap Ci fib]
+12.7 +7.3 70 +11 +13 1006.2 986.2
03 19.07 СЗ 3 50 км 9/9 900 м
[Cb cap]
+13.5 +7.3 66 +12 +14 1007.5 987.5
06 19.07 СВ 2 50 км 6/4 1000 м
[Cu med, cong Ci fib]
+15.9 +7.5 57 +16 +21 1007.7 987.9
09 19.07 С 3 50 км 9/6 600 м
[Cb cap Ci fib]
+14.5 +7.2 62 +14 +14 1009.8 989.8 +16.3
12 19.07 СЗ 2 50 км 3/3 1000 м
[Sc diur, vesp Ac lent]
+10.0 +6.5 79 +9 +9 1012.3 992.0
15 19.07 З 2 50 км 8/0
[Ac trans]
+7.3 +6.2 93 +5 +5 1013.5 992.9
18 19.07 З 1 50 км 8/0
[Ac trans Ci fib]
+6.4 +5.2 92 +5 +5 1014.5 993.9
21 19.07 ЮЗ 1 50 км 10/3 1000 м
[Sc Ac trans]
+7.0 +5.5 90 +6 +7 1015.7 995.1 +5.8
00 20.07 З 2 20 км дым 10/4 1000 м
[Sc Ac trans]
+10.6 +5.8 72 +9 +11 1016.0 995.7
03 20.07 З 3 50 км 9/4 1000 м
[Cb cap Ci fib]
+15.6 +3.7 45 +15 +21 1016.0 996.0
06 20.07 С 3 50 км 10/4 1000 м
[Cb cap Ac trans]
+14.7 +4.5 50 +14 +16 1016.7 996.6
09 20.07 СВ 2 50 км 10/3 1000 м
[Cb cap Ac trans Ci fib]
+14.3 +4.9 53 +14 +15 1017.7 997.5 +16.3
12 20.07 СЗ 1 50 км 3/3 1000 м
[Sc diur, vesp Ci fib]
+9.1 +6.4 83 +9 +9 1018.7 998.2
15 20.07 СЗ 2 50 км 3/0
[Ci fib]
+6.1 +4.5 89 +4 +4 1019.5 998.7
18 20.07 З 1 50 км ясно +1.8 +1.4 97 -0 -0 1020.3 999.2
21 20.07 ЮЗ 1 50 км 3/0
[Ac trans]
+5.4 +3.6 88 +4 +6 1020.9 1000.0 +0.9
00 21.07 Ю 2 50 км 1/0
[Ac lent]
+13.5 +7.7 68 +13 +21 1019.8 999.6

 

Местоположение метеостанции Усть-Мая (Якутия, Россия): широта 60.35 долгота 134.40 высота над уровнем моря 170 м.

В архиве по умолчанию представлена погода в Усть-Мае за последнюю неделю. Архивные данные за месяц целиком и за предыдущие месяцы, начиная с января 2011 года, Вы можете получить, выбрав интересующий диапазон дат из раскрывающегося списка и нажав кнопку "Ввод!".


*Определитесь, кто Вы:
робот инопланетянин человек

Внимание! Время в таблицах - всемирное. Для получения местного времени необходимо прибавить поправку, которая равна 9 ч.

Смотрите также архив погоды в соседних городах и на ближайших метеорологических станциях:

Погода в Усть-Миле (Якутия, Россия) (112 км)
Погода в Усть-Юдоме (Якутия, Россия) (136 км)
Погода в Амге (Якутия, Россия) (149 км)
Погода в Охотском Перевозе (Якутия, Россия) (179 км)
Погода в Югоренке (Якутия, Россия) (189 км)
Погода в Чурапче (Якутия, Россия) (210 км)
Погода в Ытык-Кюёле (Якутия, Россия) (230 км)
Погода в Тегюльте (Якутия, Россия) (242 км)
Погода в Крест-Хальджае (Якутия, Россия) (275 км)
Погода в Учуре (Якутия, Россия) (280 км)

Пояснения к столбцам:

Ветер - указаны скорость ветра в м/с - средняя за 10 мин, порывы в срок и между сроками (в фигурных скобках) и направление, откуда дует ветер: С - северный, СВ - северо-восточный, В - восточный, ЮВ - юго-восточный, Ю - южный, ЮЗ - юго-западный, З - западный, СЗ - северо-западный.
Видимость - горизонтальная дальность видимости в метрах или километрах. При видимости от 1 до 10 км при отсутствии осадков обычно наблюдается дымка, при ухудшении видимости до 1 км и менее - туман. В сухую погоду видимость может ухудшаться дымом, пылью или мглою.
Явления - указаны атмосферные явления, наблюдавшиеся в срок или в последний час перед сроком; фигурными скобками обозначены явления, наблюдавшиеся между сроками (за 1-3 часа до срока); квадратными скобками обозначены град или гололедные отложения с указанием их диаметра в мм.
Облачность - указаны через наклонную черту общая и нижняя облачность в баллах и высота нижней границы облаков в метрах; квадратными скобками обозначены формы облаков: Ci - перистые, Cs - перисто-слоистые, Cc - перисто-кучевые, Ac - высококучевые, As - высокослоистые, Sc - слоисто-кучевые, Ns - слоисто-дождевые, Cu - кучевые, Cb - кучево-дождевые. Подробнее классификацию облаков см. в Атласе облаков (PDF).
T - Температура воздуха - температура, измеренная на высоте 2 м над землей.
Td - Температура точки росы - температура, при понижении до которой содержащийся в воздухе водяной пар достигнет насыщения.
f - Относительная влажность воздуха - влажноcть воздуха, измеренная на высоте 2 м над землей.
Te - Эффективная температура - температура, которую ощущает одетый по сезону человек в тени. Характеристика душности погоды. При расчете учитывается влияние влажности воздуха и скорости ветра на теплоощущения человека.
Tes - Эффективная температура на солнце - температура, которую ощущает человек, с поправкой на солнечный нагрев. Характеристика знойности погоды. Зависит от высоты солнца над горизонтом, облачности и скорости ветра. Ночью, в пасмурную погоду, а также при ветре 12 м/с и более поправка равна нулю.
P - Атмосферное давление - приведенное к уровню моря атмосферное давление.
Po - Атмосферное давление - измеренное на уровне метеостанции атмосферное давление.
Tmin - Минимальная температура - минимум температуры воздуха на высоте 2 м над землей.
Tmax - Максимальная температура - максимум температуры воздуха на высоте 2 м над землей.
R - Количество осадков - Количество выпавших осадков за период времени, мм. При наведении курсора мыши на число - период времени, за который выпало указанное количество осадков.
R24 - Количество осадков - Количество выпавших осадков за 24 часа, мм.
S - Снежный покров - Высота снежного покрова, см. При наведении курсора мыши на число - состояние снежного покрова и степень покрытия местности в баллах.